Weather in Chemer

Ukraine / Chernihiv Region     51°06′09″N   31°12′48″E
temp.,
°C
wind,
m/s
gust,
m/s
humid.,
%
clouds,
%
prec.,
mm/h
press.,
hPa
HPBL,
m
16 may, sun
sun1600:00+11sw33905 0.0 101129
03:00+10sw22925 0.0 101221
06:00+10s22920 0.0 101236
09:00+16wsw23780 0.0 1013387
12:00+20ssw226065 0.0 10121032
15:00+21sse2254100 0.0 10111391
18:00+21se2365100 0.0 1011711
21:00+17e227492 0.0 101120
17 may, mon
mon1700:00+15e348389 0.0 101064
03:00+14ne3682100 0.0 100894
06:00+13ene41086100 0.0 1008223
09:00+17nne5982100 0.3 1006338
12:00+21ne457125 0.0 1004978
15:00+24ene4560100 0.0 10021334
18:00+23ese466820 0.1 1000923
21:00+18se358923 1.5 100083
18 may, tue
tue1800:00+16se410953 0.8 1000276
03:00+15se51097100 0.8 999492
06:00+14sw6109798 0.4 1000591
09:00+17ssw698139 0.4 1002597
12:00+20sse796994 0.3 10031328
15:00+20sse697596 3.1 10021230
18:00+15se41088100 2.3 1002408
21:00+14ese3796100 2.3 1002246
19 may, wed
wed1900:00+14ese3697100 0.0 1001235
03:00+12ese3698100 0.1 1000197
06:00+13sse3594100 0.1 1000317
09:00+14s4690100 0.1 1000481
12:00+14ssw3490100 0.3 1001503
15:00+13w5693100 0.7 1002566
18:00+11w61093100 0.6 1003691
21:00+10w71293100 1.3 1005842
20 may, thu
thu2000:00+10w81392100 0.2 1006885
03:00+10w61293100 0.5 1007806
06:00+10w61191100 0.0 1008566
09:00+13wsw688159 0.1 1010779
12:00+17w566150 0.0 10091528
15:00+18wsw345895 0.1 10101264
18:00+17n2266100 0.0 1009197
21:00+12sw61095100 1.0 1011278